CW9352 Weather Reports


Display with metric or nautical units.
time (UTC)temp
F
wind
direction
speed
MPH
gust
MPH
rain 1hr
in
rain 24hr
in
rain mn
in
humidity
%
barometer
mb
20260904232017 85 319 0.0 1.0 0.00 0.17 0.01 84 1015.1
20260904231017 85 153 0.0 1.0 0.00 0.17 0.01 83 1015.1
20260904230016 85 102 0.0 2.0 0.00 0.17 0.01 82 1015.1
20260904225037 86 190 0.0 1.0 0.00 0.17 0.01 82 1014.9
20260904224017 86 221 0.0 1.0 0.00 0.17 0.01 82 1014.8
20260904223017 86 252 0.0 1.0 0.00 0.17 0.01 81 1014.8
20260904222017 86 170 0.0 2.0 0.00 0.17 0.01 81 1014.7
20260904221038 86 169 0.0 2.0 0.00 0.17 0.01 80 1014.9
20260904220016 87 93 0.0 3.0 0.00 0.17 0.01 79 1014.8
20260904215017 88 77 0.0 2.0 0.00 0.17 0.01 79 1014.7
20260904214017 88 278 0.0 1.0 0.00 0.17 0.01 79 1014.8
20260904213017 88 100 0.0 3.0 0.00 0.17 0.01 79 1014.6
20260904212017 88 221 0.0 2.0 0.00 0.17 0.01 79 1014.5
20260904211017 88 275 0.0 1.0 0.00 0.17 0.01 79 1014.4
20260904210037 88 159 0.0 1.0 0.00 0.17 0.01 78 1014.4
20260904205017 88 267 0.0 4.0 0.00 0.17 0.01 78 1014.4
20260904204036 88 269 0.0 3.0 0.00 0.17 0.01 78 1014.4
20260904203017 88 273 0.0 2.0 0.00 0.17 0.01 77 1014.4
20260904202017 89 153 0.0 3.0 0.00 0.17 0.01 76 1014.8
20260904201017 89 156 0.0 3.0 0.00 0.17 0.01 78 1014.9
20260904200016 89 263 1.0 4.0 0.00 0.17 0.01 77 1014.9
20260904195017 89 146 1.0 3.0 0.00 0.17 0.01 76 1014.9
20260904194017 88 242 0.0 3.0 0.00 0.17 0.01 79 1015.0
20260904193016 86 154 1.0 4.0 0.00 0.17 0.01 79 1015.2
20260904192017 85 165 0.0 1.0 0.00 0.17 0.01 83 1015.3
20260904191015 85 131 0.0 1.0 0.00 0.17 0.01 85 1015.4
20260904190016 84 131 0.0 1.0 0.00 0.17 0.01 86 1015.5
20260904185016 84 88 0.0 1.0 0.00 0.17 0.01 89 1015.4
20260904184015 84 89 0.0 2.0 0.00 0.17 0.01 88 1015.4
20260904183016 83 92 0.0 1.0 0.01 0.17 0.01 90 1015.4
20260904182016 83 112 0.0 3.0 0.01 0.17 0.01 90 1015.4
20260904181016 83 132 0.0 2.0 0.01 0.17 0.01 92 1015.6
20260904180016 83 201 0.0 2.0 0.01 0.17 0.01 93 1015.9
20260904175016 83 132 0.0 3.0 0.01 0.17 0.01 93 1016.4
20260904174016 83 149 0.0 2.0 0.01 0.17 0.01 92 1016.5
20260904173016 83 153 0.0 3.0 0.00 0.16 0.00 92 1016.4
20260904172016 83 139 0.0 2.0 0.00 0.16 0.00 92 1016.4
20260904171016 82 108 0.0 2.0 0.00 0.16 0.00 93 1016.6
20260904170016 82 136 0.0 2.0 0.00 0.16 0.00 94 1016.8
20260904165016 83 128 0.0 2.0 0.00 0.16 0.00 94 1017.2
20260904164017 82 193 0.0 1.0 0.00 0.16 0.00 94 1017.2
20260904163016 82 103 0.0 1.0 0.00 0.16 0.00 94 1017.3
20260904162016 82 103 0.0 1.0 0.00 0.16 0.00 93 1017.3
20260904161116 82 103 0.0 1.0 0.00 0.16 0.00 93 1017.3
20260904160016 82 103 0.0 1.0 0.00 0.16 0.00 93 1017.3
20260904155016 82 0.0 1.0 0.00 0.16 0.00 93 1017.3
20260904154016 82 0.0 0.0 0.00 0.16 0.00 93 1017.0
20260904153016 82 110 0.0 1.0 0.00 0.16 0.00 92 1017.0
20260904152016 82 76 0.0 3.0 0.00 0.16 0.00 92 1017.0
20260904151016 82 39 0.0 0.0 0.00 0.16 0.00 92 1016.8
20260904150016 83 146 0.0 3.0 0.00 0.16 0.00 92 1016.7
20260904145016 83 71 1.0 3.0 0.00 0.16 0.00 92 1016.5
20260904144016 83 49 0.0 3.0 0.00 0.16 0.00 93 1016.5
20260904143038 82 66 1.0 3.0 0.00 0.16 0.00 97 1016.6
20260904142016 80 79 0.0 3.0 0.00 0.16 0.00 98 1016.7
20260904141036 80 55 0.0 2.0 0.00 0.16 0.00 99 1016.8
20260904140016 79 0.0 0.0 0.00 0.16 0.00 99 1016.8
20260904135016 79 0.0 0.0 0.00 0.16 0.00 99 1016.6
20260904134016 78 49 0.0 1.0 0.00 0.16 0.00 99 1016.5
20260904133016 78 0.0 1.0 0.00 0.16 0.00 99 1016.5
20260904132036 78 49 0.0 1.0 0.00 0.16 0.00 99 1016.4
20260904131056 78 50 0.0 1.0 0.00 0.16 0.00 99 1016.4
20260904130018 78 53 0.0 1.0 0.00 0.16 0.00 99 1016.3
20260904125036 77 0.0 1.0 0.00 0.16 0.00 99 1016.4
20260904124016 77 0.0 0.0 0.00 0.16 0.00 99 1016.1
20260904123036 77 72 0.0 1.0 0.00 0.16 0.00 99 1016.0
20260904122036 77 0.0 0.0 0.00 0.16 0.00 99 1015.8
20260904121516 77 0.0 0.0 0.00 0.16 0.00 99 1015.8
20260904120518 77 0.0 0.0 0.00 0.16 0.00 99 1015.8
20260904115516 76 0.0 0.0 0.00 0.16 0.00 99 1015.7
20260904114516 76 0.0 0.0 0.00 0.16 0.00 99 1015.7
20260904113516 76 0.0 0.0 0.00 0.16 0.00 99 1015.6
20260904112536 76 0.0 0.0 0.00 0.16 0.00 99 1015.6
20260904111516 76 0.0 0.0 0.00 0.16 0.00 99 1015.6
20260904110516 76 0.0 0.0 0.00 0.16 0.00 99 1015.5
20260904105516 76 0.0 0.0 0.00 0.16 0.00 99 1015.5
20260904104516 76 0.0 0.0 0.00 0.16 0.00 99 1015.4
20260904103516 76 0.0 0.0 0.00 0.16 0.00 99 1015.3
20260904102516 76 0.0 0.0 0.00 0.16 0.00 99 1015.2
20260904101516 76 0.0 0.0 0.00 0.16 0.00 99 1015.1
20260904100515 77 0.0 0.0 0.00 0.16 0.00 99 1015.0
20260904095536 77 0.0 0.0 0.00 0.16 0.00 99 1014.9
20260904094516 77 0.0 0.0 0.00 0.16 0.00 99 1015.0
20260904093516 77 0.0 0.0 0.00 0.16 0.00 99 1015.0
20260904092516 77 0.0 0.0 0.00 0.16 0.00 99 1015.0
20260904091515 77 0.0 0.0 0.00 0.16 0.00 99 1015.0
20260904090515 77 0.0 0.0 0.00 0.16 0.00 99 1015.0
20260904085516 77 0.0 0.0 0.00 0.16 0.00 99 1014.9
20260904084515 77 0.0 0.0 0.00 0.16 0.00 99 1014.9
20260904083536 77 0.0 0.0 0.00 0.16 0.00 99 1014.9
20260904082516 77 0.0 0.0 0.00 0.16 0.00 99 1015.0
20260904081515 77 0.0 0.0 0.00 0.16 0.00 99 1015.0
20260904080536 77 0.0 0.0 0.00 0.16 0.00 99 1014.9
20260904075556 77 0.0 0.0 0.00 0.16 0.00 99 1015.0
20260904074518 77 0.0 0.0 0.00 0.16 0.00 99 1014.9
20260904073518 78 0.0 0.0 0.00 0.16 0.00 99 1015.0
20260904072517 78 0.0 0.0 0.00 0.16 0.00 99 1015.0
20260904071518 78 0.0 0.0 0.00 0.16 0.00 99 1015.1
20260904070518 78 0.0 0.0 0.00 0.16 0.00 99 1015.1
20260904065518 78 0.0 0.0 0.00 0.16 0.00 98 1015.2
20260904064518 78 0.0 0.0 0.00 0.16 0.00 98 1015.2
20260904063517 78 0.0 1.0 0.00 0.16 0.00 98 1015.2
20260904062518 78 0.0 0.0 0.00 0.16 0.00 98 1015.2
20260904061518 78 0.0 1.0 0.00 0.16 0.00 98 1015.3
20260904060558 78 49 0.0 1.0 0.00 0.16 0.00 98 1015.3
20260904055518 78 0.0 0.0 0.00 0.16 0.00 98 1015.2
20260904054518 78 0.0 0.0 0.00 0.16 0.00 98 1015.4
20260904053518 78 0.0 0.0 0.01 0.16 0.00 97 1015.6
20260904052518 78 0.0 0.0 0.01 0.16 0.00 97 1015.7
20260904051518 78 0.0 0.0 0.04 0.16 0.00 97 1015.9
20260904050518 78 0.0 0.0 0.07 0.16 0.00 97 1015.9
20260904045538 78 0.0 0.0 0.12 0.16 0.16 97 1016.1
20260904044518 79 42 0.0 1.0 0.13 0.16 0.16 97 1016.0
20260904043518 79 0.0 0.0 0.14 0.15 0.15 96 1016.0
20260904042516 79 0.0 0.0 0.14 0.15 0.15 96 1016.3
20260904041518 79 0.0 1.0 0.12 0.12 0.12 95 1016.4
20260904040516 80 81 0.0 2.0 0.09 0.09 0.09 94 1016.7
20260904035518 81 113 2.0 9.0 0.04 0.04 0.04 93 1016.6
20260904034518 82 190 1.0 5.0 0.03 0.03 0.03 92 1016.3
20260904033517 82 0.0 0.0 0.01 0.01 0.01 90 1016.2
20260904032518 83 0.0 0.0 0.01 0.01 0.01 86 1016.3
20260904031538 84 0.0 0.0 0.00 0.00 0.00 85 1016.0
20260904030518 84 275 0.0 1.0 0.00 0.00 0.00 84 1016.1
20260904025518 84 0.0 0.0 0.00 0.00 0.00 84 1016.3
20260904024558 84 0.0 0.0 0.00 0.00 0.00 83 1016.2
20260904023517 84 295 0.0 0.0 0.00 0.00 0.00 83 1015.8
20260904022518 84 295 0.0 1.0 0.00 0.00 0.00 84 1016.0
20260904021538 83 0.0 0.0 0.00 0.00 0.00 85 1016.1
20260904020515 83 0.0 0.0 0.00 0.00 0.00 86 1016.0
20260904015518 82 0.0 0.0 0.00 0.00 0.00 87 1015.9
20260904014518 82 0.0 0.0 0.00 0.00 0.00 86 1015.9
20260904013518 83 0.0 0.0 0.00 0.00 0.00 85 1016.0
20260904012018 83 0.0 0.0 0.00 0.00 0.00 84 1015.9
20260904011017 83 0.0 0.0 0.00 0.00 0.00 84 1015.8
20260904010017 84 0.0 0.0 0.00 0.00 0.00 83 1015.7
20260904005019 84 0.0 0.0 0.00 0.00 0.00 82 1015.6
20260904004017 84 0.0 0.0 0.00 0.00 0.00 82 1015.5
20260904003017 84 0.0 0.0 0.00 0.00 0.00 81 1015.3
20260904002017 85 271 0.0 1.0 0.00 0.00 0.00 81 1015.3
20260904001017 85 0.0 1.0 0.00 0.00 0.00 80 1015.3
20260904000017 85 191 0.0 3.0 0.00 0.00 0.00 79 1015.4
20260903235037 85 142 0.0 2.0 0.00 0.00 0.00 79 1015.2
20260903234017 85 153 0.0 1.0 0.00 0.00 0.00 79 1015.2
20260903233015 85 217 0.0 1.0 0.00 0.00 0.00 79 1015.1